Temp
21 21 21 20 16 14 17 21 20 20 21 22 22 22 21 21 21 19 21 20 19 19 19 18 18 18 18 18 17 17 17 17 17 17 16 16 16 16 15 15 15 16 16 16 16 15 16 16 16
20 21 20 20 15 16 17 20 20 22 23 23 22 22 21 22 22 22 21 21 20 20 19 19 19 18 18 18 18 17 17 17 16 16 16 17 16 16 14 14 14 16 16 16 15 16 16 16 15
20 20 20 15 15 18 19 20 21 22 23 22 22 22 23 22 22 22 21 21 21 20 20 19 19 19 19 18 18 17 17 17 16 16 15 16 16 16 16 15 15 15 15 15 15 16 16 16 16
20 20 20 16 19 22 22 21 22 22 22 23 22 21 23 22 22 22 22 21 21 21 20 19 19 18 18 18 18 17 17 17 16 15 15 14 15 15 15 15 15 16 16 15 15 16 16 16 16
20 20 15 17 20 23 20 22 23 22 22 22 22 22 22 22 22 22 22 22 21 21 21 20 19 18 18 17 17 17 17 17 16 16 14 14 15 15 15 15 15 16 16 15 16 16 16 16 16
19 19 15 16 19 22 20 23 23 22 23 22 22 22 22 21 22 22 22 22 21 20 20 20 20 19 18 17 17 16 16 15 15 15 15 15 15 15 16 15 16 16 15 15 16 16 16 16 16
19 14 16 19 20 20 21 23 22 21 21 21 22 21 21 22 22 22 21 21 21 21 20 20 20 20 19 18 17 16 16 15 15 15 14 14 14 15 16 15 16 16 16 16 16 16 16 16 16
19 15 19 19 19 21 21 22 23 22 21 22 22 19 21 23 22 21 21 20 20 20 20 20 19 19 18 18 17 17 16 15 15 14 14 13 13 13 14 15 15 16 15 16 16 16 16 15 15
19 14 15 19 20 20 22 21 22 22 22 22 22 22 22 22 22 22 21 21 20 19 18 19 19 19 18 18 17 17 17 16 15 14 13 14 13 14 14 14 15 15 15 16 15 15 15 15 15
17 13 17 19 19 19 19 19 19 20 20 21 21 22 22 21 21 21 21 21 21 20 19 18 19 19 19 18 17 17 16 16 16 14 14 14 14 14 14 14 15 15 16 16 16 15 15 15 15
18 15 17 20 20 20 19 19 20 19 16 20 21 21 21 21 21 21 21 21 21 20 19 18 18 18 18 18 18 17 16 16 15 15 14 14 14 14 14 14 15 15 16 16 16 16 15 15 15
17 19 19 19 20 19 19 19 18 18 19 19 20 20 21 21 21 21 21 21 21 20 20 19 18 18 18 18 18 18 17 16 16 15 14 13 13 14 14 15 15 15 16 16 16 15 15 15 14
17 18 19 19 19 19 19 18 17 19 21 20 20 21 21 21 21 21 21 21 21 21 20 20 19 18 18 17 17 16 17 16 15 15 13 12 12 13 14 15 15 15 15 16 16 15 15 14 14
17 17 17 18 19 18 17 17 18 20 21 20 21 21 20 20 19 20 20 20 19 19 19 19 19 19 18 17 16 15 15 15 15 14 14 13 12 12 13 14 14 14 14 15 15 15 14 14 14
17 16 14 16 17 16 18 16 16 20 20 20 21 21 20 18 18 18 18 19 18 18 19 18 18 17 17 16 16 15 14 13 13 13 13 12 12 12 12 13 13 13 13 14 14 14 14 14 14
16 15 14 16 18 17 17 15 16 21 20 20 20 19 18 16 16 15 16 17 17 17 17 17 16 16 16 16 15 14 13 13 12 12 12 12 11 11 11 11 12 12 12 13 14 14 14 13 13
13 13 14 15 17 15 16 14 17 20 19 19 19 18 15 14 13 13 14 16 16 17 16 15 16 15 14 14 14 13 13 12 11 11 11 12 11 11 11 10 10 10 11 12 12 13 13 13 13
13 13 14 14 16 16 14 12 13 18 19 17 17 14 12 11 10 11 13 13 13 14 13 13 14 14 14 13 12 11 11 11 10 10 11 10 10 10 10 10 9 9 9 10 10 10 11 12 11
15 14 13 13 15 14 14 13 13 16 17 15 14 10 9 9 9 11 12 12 12 13 13 13 13 12 12 12 11 11 10 10 9 9 9 9 9 9 9 9 9 9 9 9 9 9 9 10 10
14 13 12 13 15 15 13 13 13 14 14 15 11 9 8 8 9 10 11 11 11 11 11 12 12 11 12 11 10 9 9 9 9 9 9 8 8 8 8 8 8 8 8 7 7 8 8 9 8
14 13 12 13 13 13 13 11 13 14 11 9 9 8 7 7 6 7 8 8 9 9 10 10 11 11 10 9 9 9 8 8 8 8 8 7 7 7 7 7 7 6 6 6 7 7 7 8 8
12 13 13 14 12 11 13 9 13 13 10 8 7 6 6 6 6 6 7 7 7 8 9 9 10 10 10 10 10 8 7 8 7 6 6 6 6 6 6 5 5 5 5 4 5 5 6 6 6
12 13 13 13 11 11 11 9 10 10 9 7 6 6 5 5 5 5 6 6 6 7 8 8 9 9 9 8 9 8 8 6 6 6 6 5 5 5 5 5 4 4 4 3 3 3 4 4 5
12 13 12 11 9 8 10 10 10 12 10 7 6 5 5 5 5 6 6 6 6 7 7 8 8 8 7 8 7 7 7 7 7 6 5 5 4 4 3 3 3 3 3 3 2 2 3 3 3
12 10 8 8 6 8 10 10 11 12 10 8 4 4 4 4 5 5 5 5 6 6 6 7 7 7 6 6 6 6 5 6 6 5 5 5 4 3 3 2 3 3 3 2 2 2 1 2 2
10 11 7 7 7 7 10 9 11 6 5 4 4 4 4 4 4 4 4 5 6 5 5 4 4 4 5 5 5 4 4 4 3 3 3 3 3 3 3 2 2 2 3 3 2 2 1 1 1
12 10 11 8 1 4 8 10 7 6 5 4 4 4 4 3 3 4 4 4 5 5 4 4 3 3 3 3 2 2 3 3 3 2 2 2 2 2 2 2 2 2 2 2 2 2 2 1 0
11 11 8 6 5 4 7 9 9 6 4 4 3 4 4 4 4 4 4 3 3 2 2 2 1 1 2 2 2 2 2 1 1 2 2 2 1 1 1 2 2 2 1 2 2 1 1 1 1
9 9 9 8 7 5 5 8 8 6 4 3 3 4 5 4 4 3 2 1 1 0 0 0 0 0 -0 -0 -0 -0 0 0 -0 -0 0 1 1 0 -0 -0 0 1 1 1 1 1 1 0 0
9 8 8 6 6 4 7 9 7 4 4 5 4 5 5 4 3 2 1 0 0 0 0 -0 -0 -0 -0 -1 -1 -1 -1 -2 -2 -2 -2 -2 -1 -1 -1 -1 -0 0 -0 -0 -0 -0 0 0 0
Height
1541 1540 1539 1539 1549 1553 1557 1545 1538 1540 1539 1538 1538 1538 1539 1538 1539 1551 1539 1538 1538 1540 1542 1544 1546 1548 1550 1552 1554 1555 1556 1558 1559 1560 1561 1562 1564 1564 1565 1566 1566 1567 1567 1567 1568 1568 1569 1568 1569
1540 1540 1539 1540 1556 1568 1559 1540 1541 1536 1536 1537 1537 1537 1538 1538 1537 1538 1538 1538 1537 1539 1541 1543 1545 1547 1549 1551 1553 1554 1555 1557 1558 1559 1560 1561 1562 1563 1564 1565 1565 1565 1566 1566 1567 1568 1568 1568 1569
1541 1540 1541 1545 1557 1560 1556 1541 1538 1536 1536 1536 1537 1537 1537 1537 1537 1537 1538 1538 1537 1538 1540 1541 1543 1545 1547 1549 1551 1553 1554 1555 1556 1558 1559 1560 1561 1562 1563 1563 1564 1564 1565 1565 1566 1566 1567 1567 1568
1541 1541 1542 1551 1551 1539 1538 1538 1535 1536 1537 1536 1537 1537 1537 1537 1537 1537 1537 1538 1537 1538 1539 1541 1543 1544 1546 1548 1549 1551 1552 1554 1555 1556 1558 1559 1560 1561 1562 1562 1562 1562 1563 1564 1564 1565 1565 1566 1566
1541 1541 1550 1552 1546 1535 1535 1535 1535 1535 1535 1536 1536 1537 1536 1536 1536 1537 1537 1537 1537 1537 1538 1539 1541 1543 1544 1546 1547 1549 1551 1552 1553 1555 1556 1557 1558 1559 1560 1561 1561 1561 1562 1562 1563 1564 1564 1565 1565
1541 1542 1558 1561 1548 1536 1535 1534 1535 1536 1535 1535 1536 1536 1536 1536 1536 1536 1536 1536 1536 1536 1536 1537 1538 1540 1541 1543 1545 1547 1549 1551 1552 1553 1554 1555 1556 1557 1559 1559 1560 1560 1561 1561 1562 1563 1563 1564 1564
1543 1548 1554 1547 1543 1539 1536 1534 1535 1536 1536 1536 1536 1536 1536 1535 1535 1534 1534 1534 1534 1534 1534 1534 1536 1537 1538 1540 1542 1544 1546 1548 1550 1552 1554 1554 1555 1555 1557 1558 1559 1559 1560 1561 1561 1562 1562 1563 1563
1543 1545 1547 1545 1546 1540 1534 1534 1534 1535 1535 1536 1537 1536 1535 1534 1533 1533 1533 1531 1531 1531 1531 1532 1533 1535 1536 1537 1539 1541 1543 1545 1547 1550 1551 1553 1554 1554 1555 1557 1557 1558 1558 1559 1560 1561 1561 1562 1563
1544 1554 1558 1546 1544 1541 1536 1536 1535 1535 1534 1533 1534 1533 1533 1533 1532 1532 1531 1530 1528 1528 1528 1529 1530 1532 1533 1535 1536 1538 1539 1541 1544 1546 1548 1549 1551 1552 1553 1555 1556 1556 1557 1558 1559 1560 1560 1561 1561
1544 1557 1548 1540 1540 1540 1537 1537 1536 1535 1533 1531 1529 1529 1530 1530 1530 1529 1528 1527 1526 1526 1525 1525 1526 1527 1529 1530 1533 1535 1536 1538 1539 1541 1543 1546 1548 1549 1551 1552 1554 1555 1556 1556 1557 1558 1559 1560 1560
1542 1549 1540 1536 1537 1537 1536 1534 1535 1534 1531 1530 1526 1526 1527 1527 1526 1525 1523 1522 1522 1522 1522 1522 1523 1523 1525 1526 1528 1530 1532 1534 1536 1538 1539 1541 1543 1545 1547 1549 1550 1552 1553 1554 1555 1556 1557 1558 1559
1541 1537 1538 1537 1537 1536 1535 1534 1532 1532 1527 1526 1524 1523 1523 1523 1522 1521 1519 1519 1518 1517 1518 1518 1518 1519 1520 1521 1522 1524 1527 1529 1531 1533 1536 1538 1538 1540 1542 1544 1546 1548 1550 1551 1553 1554 1555 1556 1557
1537 1536 1536 1535 1534 1532 1533 1532 1532 1526 1522 1522 1520 1519 1519 1520 1520 1519 1517 1515 1515 1513 1513 1514 1515 1515 1516 1517 1518 1519 1521 1524 1527 1529 1531 1533 1535 1536 1537 1540 1542 1545 1546 1548 1550 1551 1552 1554 1554
1535 1534 1533 1531 1528 1528 1528 1526 1528 1520 1521 1519 1518 1517 1517 1518 1516 1514 1512 1510 1509 1508 1510 1510 1510 1511 1511 1513 1515 1516 1517 1520 1523 1525 1527 1529 1531 1533 1532 1536 1538 1540 1542 1544 1546 1547 1549 1550 1551
1535 1535 1532 1523 1523 1524 1522 1527 1524 1518 1517 1515 1513 1514 1515 1513 1513 1510 1509 1507 1506 1504 1504 1505 1507 1508 1508 1509 1511 1513 1515 1517 1518 1521 1524 1525 1527 1529 1530 1531 1533 1536 1538 1539 1541 1543 1544 1545 1546
1535 1536 1540 1522 1522 1521 1522 1532 1517 1517 1515 1510 1507 1510 1512 1511 1510 1507 1506 1504 1504 1503 1502 1501 1501 1504 1505 1506 1508 1509 1511 1513 1514 1516 1518 1520 1522 1524 1527 1528 1529 1531 1532 1534 1536 1538 1540 1541 1542
1538 1544 1539 1530 1520 1522 1524 1528 1517 1514 1512 1505 1505 1510 1510 1509 1507 1505 1504 1502 1500 1499 1499 1499 1498 1499 1502 1505 1505 1506 1507 1509 1510 1512 1515 1516 1518 1520 1522 1524 1526 1527 1528 1529 1531 1533 1535 1537 1538
1542 1540 1534 1534 1522 1520 1524 1523 1517 1512 1506 1500 1505 1508 1506 1506 1507 1505 1503 1500 1498 1496 1496 1496 1497 1498 1499 1501 1504 1504 1505 1505 1507 1509 1511 1513 1514 1515 1516 1519 1521 1523 1523 1524 1527 1529 1531 1532 1534
1529 1533 1536 1530 1522 1521 1521 1521 1513 1506 1501 1500 1503 1504 1508 1508 1509 1506 1503 1501 1499 1497 1496 1495 1496 1496 1497 1498 1500 1502 1503 1505 1506 1507 1507 1508 1511 1511 1512 1513 1514 1516 1518 1520 1523 1524 1526 1528 1530
1530 1531 1533 1527 1519 1519 1518 1518 1509 1499 1502 1500 1501 1506 1509 1509 1508 1506 1504 1503 1501 1499 1498 1497 1497 1497 1497 1497 1498 1499 1501 1503 1506 1507 1507 1507 1506 1506 1507 1509 1509 1510 1511 1513 1516 1519 1520 1522 1524
1525 1528 1529 1530 1522 1518 1519 1519 1509 1498 1504 1507 1508 1509 1509 1508 1508 1507 1506 1505 1504 1503 1501 1500 1499 1498 1497 1497 1497 1497 1498 1500 1502 1504 1506 1507 1506 1505 1504 1504 1505 1505 1506 1507 1509 1511 1514 1517 1518
1529 1520 1520 1521 1527 1535 1519 1533 1510 1500 1510 1511 1513 1511 1511 1510 1509 1509 1510 1509 1509 1507 1506 1505 1504 1501 1500 1499 1497 1497 1498 1497 1499 1502 1503 1504 1504 1504 1502 1501 1500 1500 1500 1501 1504 1506 1506 1509 1511
1524 1519 1521 1521 1527 1528 1526 1537 1513 1504 1512 1513 1514 1513 1513 1514 1512 1513 1513 1513 1513 1512 1511 1510 1508 1505 1504 1504 1501 1500 1498 1499 1498 1499 1500 1502 1502 1501 1501 1498 1496 1495 1495 1495 1497 1499 1501 1502 1503
1517 1519 1522 1524 1532 1545 1524 1525 1514 1501 1502 1510 1514 1515 1516 1516 1514 1515 1517 1517 1517 1516 1514 1512 1511 1509 1507 1506 1505 1505 1502 1501 1500 1499 1499 1499 1500 1496 1496 1496 1491 1489 1490 1489 1490 1492 1493 1495 1496
1518 1530 1542 1545 1552 1539 1519 1520 1506 1495 1495 1503 1514 1517 1520 1520 1518 1518 1519 1519 1519 1517 1516 1515 1513 1512 1510 1508 1507 1505 1505 1503 1502 1501 1500 1500 1498 1497 1492 1495 1490 1484 1483 1483 1484 1485 1486 1487 1487
1522 1523 1543 1554 1543 1537 1520 1526 1508 1509 1505 1508 1513 1517 1519 1522 1521 1520 1521 1521 1519 1519 1516 1516 1516 1514 1511 1511 1510 1508 1507 1504 1503 1502 1502 1501 1498 1495 1493 1491 1490 1483 1478 1478 1477 1478 1479 1480 1479
1516 1522 1517 1530 1559 1551 1523 1510 1513 1514 1516 1515 1516 1516 1517 1520 1521 1521 1521 1521 1519 1519 1518 1516 1518 1517 1512 1511 1511 1511 1509 1505 1503 1501 1499 1500 1500 1498 1494 1490 1487 1482 1475 1473 1473 1472 1472 1472 1471
1512 1512 1525 1534 1554 1559 1522 1513 1508 1515 1518 1519 1519 1519 1519 1518 1518 1519 1518 1518 1519 1518 1516 1513 1517 1518 1515 1513 1510 1511 1510 1507 1505 1501 1497 1496 1498 1498 1496 1489 1483 1479 1476 1470 1469 1468 1467 1464 1464
1515 1517 1516 1520 1527 1537 1542 1515 1503 1507 1512 1517 1516 1515 1514 1515 1515 1515 1516 1516 1517 1519 1515 1514 1515 1515 1513 1514 1513 1509 1507 1506 1505 1504 1501 1496 1494 1494 1492 1488 1479 1473 1473 1468 1465 1464 1463 1461 1457
1509 1511 1514 1526 1526 1529 1519 1507 1505 1506 1509 1510 1511 1511 1511 1513 1514 1513 1514 1515 1516 1514 1513 1514 1514 1513 1512 1508 1511 1508 1506 1505 1502 1503 1501 1496 1491 1487 1487 1483 1477 1470 1469 1465 1459 1458 1458 1456 1453
Wind_Speed
5 4 4 4 4 5 4 2 3 6 3 1 2 1 2 3 3 3 1 3 5 6 13 21 21 21 19 17 15 13 12 11 10 9 8 8 7 7 6 4 3 4 2 2 0 1 1 3 4
3 2 3 2 4 3 5 3 5 4 3 2 2 1 1 1 3 3 2 1 6 5 11 19 20 21 20 19 16 14 13 12 11 10 9 9 8 7 6 6 5 3 3 3 2 1 1 1 1
3 2 3 3 3 3 2 2 2 5 5 3 2 2 1 3 2 2 2 2 6 8 10 18 20 20 20 19 18 16 14 12 11 10 10 10 10 9 7 8 8 8 4 5 4 4 3 3 3
1 2 1 4 2 2 3 2 5 3 2 3 1 4 2 3 2 2 3 2 5 7 10 14 20 21 21 20 19 18 16 14 13 12 11 11 11 9 8 8 10 9 7 7 6 5 5 4 4
3 1 3 2 4 1 4 6 4 2 3 3 2 3 7 4 1 2 4 3 4 8 10 13 17 21 21 21 21 20 18 17 16 15 14 13 13 11 10 10 12 10 8 9 8 6 5 5 5
3 1 4 1 5 2 3 7 2 4 3 1 1 1 2 2 3 3 4 6 5 7 10 13 15 18 22 23 22 22 20 19 17 17 17 17 15 14 11 9 11 11 9 10 8 7 6 5 5
2 3 3 3 4 5 2 3 3 3 8 2 1 1 3 4 5 5 6 8 7 8 11 14 16 18 19 23 24 23 22 21 20 18 18 19 17 17 13 9 11 10 10 10 8 7 6 7 7
2 4 2 3 1 3 4 2 1 3 5 3 3 2 2 7 10 11 13 13 11 12 13 14 17 19 20 23 24 25 25 23 22 21 21 20 19 19 16 11 13 12 11 10 8 8 8 8 7
1 4 2 3 5 3 3 4 1 5 9 12 8 15 19 21 18 14 15 14 15 15 17 18 17 19 21 23 25 25 24 24 24 22 24 23 23 21 19 14 15 14 13 11 10 10 10 9 9
3 3 5 2 1 3 7 4 8 7 16 24 24 18 11 18 16 18 19 20 19 18 19 21 20 20 21 23 25 27 26 26 27 27 27 26 25 24 21 18 17 17 16 14 12 11 12 11 10
4 5 3 9 13 10 6 13 9 9 5 18 26 26 24 24 21 20 21 22 24 21 17 18 19 20 22 23 24 27 28 29 29 29 29 28 28 27 25 23 21 20 19 17 16 14 15 13 11
3 11 10 7 17 11 4 9 11 13 26 27 25 25 26 26 20 20 20 19 20 20 20 18 21 21 21 24 26 25 26 27 29 31 29 30 31 30 29 27 24 22 21 19 18 16 18 16 14
4 3 7 13 17 20 18 12 11 26 25 21 20 19 20 14 16 18 18 18 17 19 20 18 19 22 23 23 27 28 27 26 26 29 30 32 33 30 29 26 26 24 23 23 22 21 20 19 17
4 6 12 12 23 23 12 12 2 20 20 17 13 13 13 18 16 15 16 13 16 18 18 19 18 18 22 24 23 28 29 28 27 27 29 29 33 33 33 28 26 26 26 25 24 23 22 22 20
5 5 7 17 11 7 7 3 7 18 16 23 23 25 31 20 12 12 5 10 10 9 13 13 17 15 19 23 22 23 28 30 30 29 27 29 29 32 34 32 30 28 28 27 27 26 26 25 24
4 1 3 5 3 2 2 7 10 15 17 28 33 29 19 4 2 2 2 5 7 7 10 11 12 11 12 20 22 21 23 27 29 29 28 27 27 30 32 32 31 29 30 30 29 28 28 27 27
2 3 5 7 4 3 3 6 12 18 22 30 29 20 6 5 6 9 8 7 9 12 11 9 10 13 12 13 17 20 20 22 25 25 25 25 26 29 31 31 30 30 31 32 31 30 29 30 29
5 4 4 5 4 2 4 9 9 20 27 27 21 9 11 14 17 14 12 10 7 4 5 7 7 8 11 10 13 16 19 19 20 23 23 24 26 28 30 29 28 30 31 33 34 32 32 31 29
3 3 4 5 9 4 9 6 10 21 28 20 7 20 19 19 15 16 17 17 17 15 11 5 5 6 8 10 11 13 15 16 17 18 19 23 24 25 26 28 27 29 31 33 34 34 34 33 32
4 4 6 5 5 2 7 9 13 17 4 4 23 22 18 17 18 20 20 21 24 23 22 17 10 4 2 4 4 4 7 13 14 15 18 18 19 23 24 25 27 28 29 31 33 35 36 35 35
3 4 5 8 3 4 4 6 8 3 21 23 22 21 19 20 21 21 22 23 23 24 24 21 18 13 9 4 2 6 8 6 7 9 13 13 16 19 21 22 24 27 29 31 32 33 36 37 39
5 3 4 3 2 3 3 5 4 2 7 9 15 20 20 20 20 20 21 23 25 25 23 22 19 17 14 11 7 5 3 2 4 5 8 13 16 18 17 19 21 24 27 30 31 32 34 37 41
7 2 2 3 4 2 5 0 7 9 5 4 12 20 20 18 19 20 21 21 21 21 23 22 21 20 20 17 13 9 5 2 4 7 9 11 12 13 17 20 19 22 26 28 29 31 34 36 39
3 2 4 2 3 1 5 5 5 4 8 6 13 20 19 16 16 17 17 16 17 17 17 17 18 18 17 16 16 15 12 8 5 5 8 9 9 8 8 10 13 19 23 25 28 29 31 34 38
4 4 3 4 1 5 2 2 7 5 5 14 16 21 17 14 14 14 14 15 15 15 16 15 14 14 14 13 12 12 12 12 11 11 10 9 10 11 11 13 12 11 12 20 26 29 31 33 35
5 5 4 5 3 4 7 5 4 9 25 28 27 20 14 11 11 12 12 13 14 14 14 13 13 12 12 13 14 13 12 13 14 13 14 13 13 13 13 16 18 16 15 15 18 24 30 32 34
4 4 3 2 1 3 4 5 8 9 12 18 20 18 14 10 6 7 9 10 10 10 9 10 9 10 11 11 12 13 13 13 15 15 15 17 17 15 14 13 14 14 14 16 18 21 24 28 32
2 1 2 2 1 4 5 4 4 5 10 8 9 13 11 7 3 2 5 8 8 7 6 7 8 10 11 10 10 11 14 14 15 15 16 17 19 20 20 18 16 17 16 15 17 20 22 25 28
1 1 2 2 4 4 2 5 4 6 11 10 13 14 12 8 6 5 4 3 2 2 6 8 8 10 12 14 15 14 14 15 16 17 17 16 18 22 25 25 24 23 22 19 18 19 21 24 26
6 6 5 3 5 3 3 11 3 8 15 17 17 15 11 10 8 7 7 4 2 1 3 6 11 14 15 17 18 19 19 19 19 21 22 22 22 21 24 26 26 26 27 26 24 24 23 24 25
Wind_Direction
317 327 338 3 51 64 319 35 90 40 37 89 350 18 218 247 212 211 169 221 238 200 185 193 196 200 204 205 205 206 207 205 201 200 198 189 184 181 183 196 211 213 203 241 113 112 56 112 125
1 355 10 357 84 72 294 130 105 160 174 14 306 343 287 335 79 134 142 145 242 212 200 196 198 202 208 212 214 215 215 211 206 205 206 207 203 203 208 213 219 239 214 228 221 249 230 133 129
74 13 6 95 113 136 164 52 60 23 113 88 2 286 297 121 105 292 268 234 238 228 206 200 202 205 212 216 217 216 218 217 215 211 216 225 233 240 239 245 249 258 234 226 235 253 255 257 258
78 56 260 86 237 273 109 150 64 39 98 100 3 321 215 229 290 301 325 246 243 232 218 204 207 210 213 217 220 220 219 221 221 221 222 228 237 235 236 237 250 260 248 241 243 251 257 263 256
32 336 47 359 289 140 68 87 73 303 302 158 147 307 329 204 179 32 21 343 245 238 226 219 215 217 218 219 221 221 223 224 227 228 228 235 242 244 242 253 252 250 247 243 245 244 241 241 238
348 20 47 5 308 293 78 91 29 325 331 206 103 270 331 189 199 239 339 346 289 243 240 227 226 225 224 224 225 225 227 227 229 230 232 237 245 249 249 264 246 243 238 237 240 241 234 210 197
33 76 217 273 288 344 141 109 65 7 340 39 27 326 290 223 285 283 291 314 288 261 248 241 232 230 231 230 229 230 230 231 234 233 234 236 245 252 253 261 254 244 237 236 233 231 209 196 193
349 92 300 280 243 276 164 119 340 332 300 16 332 276 240 286 294 290 292 293 279 264 260 250 244 238 234 235 232 231 232 234 234 231 232 236 244 248 252 260 257 244 236 234 228 220 208 204 206
351 60 263 264 16 345 25 26 344 310 280 296 283 282 296 299 283 298 301 298 284 263 255 257 251 247 242 238 235 234 235 233 233 229 233 238 239 245 253 261 259 249 243 237 227 218 213 213 214
110 113 237 144 23 314 328 346 333 322 303 296 292 290 270 323 298 291 294 294 297 289 266 258 257 250 243 239 235 236 237 236 232 229 234 238 239 245 252 256 258 250 244 240 236 228 224 223 224
182 192 221 306 332 327 325 314 309 312 298 277 291 298 299 306 303 295 296 293 295 298 286 270 269 264 253 243 240 237 237 237 236 233 234 236 239 244 249 253 256 251 245 237 234 231 232 232 234
208 227 249 279 311 308 275 297 296 277 277 293 288 291 293 299 299 299 294 293 295 285 290 289 270 267 265 255 246 244 240 238 236 235 234 233 237 241 244 248 251 252 250 243 240 232 233 231 231
217 254 281 290 292 288 290 280 268 285 307 321 311 296 295 295 307 307 310 293 290 298 280 278 281 271 269 262 254 250 246 242 241 242 234 235 240 240 249 248 249 249 247 243 239 236 236 235 235
313 322 304 294 281 280 259 264 239 280 323 322 322 328 331 323 327 312 301 284 267 264 267 282 274 278 271 265 262 254 252 251 249 247 248 242 241 245 252 255 254 251 248 246 241 239 237 236 236
329 327 311 273 276 227 239 308 227 280 309 305 303 308 318 331 321 313 324 278 270 273 263 242 268 269 270 264 264 259 250 251 254 255 253 253 244 248 250 258 259 258 252 247 243 239 235 235 235
301 50 315 284 169 211 136 252 275 302 298 300 297 308 327 358 350 349 293 265 267 276 267 241 224 263 271 263 261 260 255 249 251 257 260 256 250 246 253 257 259 259 253 248 247 244 240 238 238
303 234 210 314 341 147 172 249 261 297 294 285 297 323 44 122 61 29 8 336 304 286 269 251 232 224 246 267 265 262 258 254 254 253 249 248 245 246 257 262 263 261 256 250 249 247 245 242 240
225 233 284 255 276 157 250 253 269 277 288 290 304 29 101 79 55 46 37 26 14 345 288 244 237 213 210 236 251 253 253 254 251 249 244 244 246 251 253 259 263 261 259 254 251 250 248 245 241
269 246 263 274 278 303 281 284 271 280 287 313 61 110 93 79 70 68 66 65 66 67 67 82 219 218 214 224 236 247 250 249 249 243 244 246 249 253 257 256 253 264 260 258 256 253 250 246 238
236 256 279 287 286 358 288 285 285 278 339 124 126 112 104 95 77 70 68 64 62 63 64 69 77 109 204 229 218 235 245 246 252 251 248 249 254 256 257 258 259 262 263 259 255 254 251 245 240
251 232 250 234 309 296 302 289 266 330 96 92 102 106 98 87 78 70 66 63 61 59 59 58 59 60 63 69 225 231 225 216 234 230 240 248 255 260 263 261 259 260 259 259 259 256 253 249 244
262 189 236 243 66 224 56 281 292 212 98 81 96 95 90 86 83 74 65 59 57 55 56 56 56 56 55 49 47 39 42 188 230 259 260 258 257 256 256 262 261 259 259 258 260 262 256 253 248
227 101 215 221 220 28 266 7 260 110 108 124 107 98 91 83 78 71 66 63 60 56 51 48 47 50 50 46 46 41 45 46 255 259 273 275 273 266 257 253 253 255 255 258 258 259 259 255 252
127 39 315 39 110 330 261 178 276 192 172 154 124 107 102 95 87 80 69 61 54 47 42 38 35 38 41 40 42 40 41 37 11 319 301 301 293 281 271 270 259 255 254 256 258 260 260 260 259
73 74 320 343 12 219 235 1 246 358 134 122 111 105 101 95 87 74 59 46 39 35 31 25 22 22 22 21 26 34 34 30 27 19 6 339 316 303 297 294 283 268 260 258 257 258 258 260 260
184 166 155 236 229 250 8 263 306 77 91 103 112 113 106 91 75 61 44 32 25 20 24 25 25 26 24 19 15 15 17 22 24 23 15 4 359 350 330 307 293 291 286 274 263 258 257 258 260
177 163 170 177 82 36 215 281 107 101 90 103 113 115 113 109 89 44 35 18 3 1 14 25 27 32 38 38 36 27 19 16 19 17 12 7 358 353 348 342 336 323 306 292 279 267 263 260 259
149 201 44 26 226 252 278 241 222 144 129 122 126 131 136 140 131 22 348 344 344 349 13 40 32 27 25 19 17 11 6 4 358 351 350 351 347 344 341 341 342 343 335 325 305 288 276 268 263
98 246 199 189 177 201 231 259 160 149 154 155 165 173 181 197 215 216 254 293 315 350 28 32 28 23 18 9 5 2 356 351 346 339 336 332 330 330 332 333 336 336 332 332 328 316 305 290 276
187 224 187 164 264 256 242 258 158 139 158 175 196 196 213 231 221 216 211 208 227 54 35 20 9 5 0 360 349 347 344 341 338 333 333 331 327 324 321 322 322 322 322 323 323 320 316 309 301